DW3128 Weather Reports


time (UTC)temp
C
wind
direction
speed
KPH
gust
KPH
rain 1hr
cm
rain 24hr
cm
rain mn
cm
humidity
%
barometer
mb
20260506050816 16 357 8.0 20.9 0.00 0.00 0.00 76 1008.4
20260506050307 16 314 11.3 16.1 0.00 0.00 0.00 76 1008.4
20260506044807 16 323 8.0 16.1 0.00 0.00 0.00 76 1008.4
20260506044307 17 10 12.9 20.9 0.00 0.00 0.00 75 1008.3
20260506043807 17 317 8.0 16.1 0.00 0.00 0.00 75 1008.3
20260506043308 17 3 3.2 16.1 0.00 0.00 0.00 75 1008.1
20260506042307 17 340 12.9 24.1 0.00 0.00 0.00 75 1008.2
20260506041807 17 316 12.9 16.1 0.00 0.00 0.00 74 1008.2
20260506041308 17 315 6.4 11.3 0.00 0.00 0.00 74 1008.3
20260506035307 17 335 12.9 19.3 0.00 0.00 0.00 74 1008.3
20260506034307 17 25 9.7 19.3 0.00 0.00 0.00 74 1008.1
20260506033807 18 315 11.3 20.9 0.00 0.00 0.00 74 1008.1
20260506033307 18 330 11.3 14.5 0.00 0.00 0.00 74 1007.8
20260506032807 18 352 8.0 20.9 0.00 0.00 0.00 74 1007.5
20260506032307 18 326 9.7 25.7 0.00 0.00 0.00 74 1007.4
20260506031807 18 318 11.3 19.3 0.00 0.00 0.00 73 1007.4
20260506031307 18 327 8.0 14.5 0.00 0.00 0.00 74 1007.3
20260506030808 18 310 4.8 11.3 0.00 0.00 0.00 75 1007.3
20260506030308 18 338 4.8 11.3 0.00 0.00 0.00 74 1007.2
20260506025808 18 346 11.3 16.1 0.00 0.00 0.00 74 1006.9
20260506025307 18 316 4.8 14.5 0.00 0.00 0.00 74 1006.8
20260506024807 18 328 4.8 8.0 0.00 0.00 0.00 73 1006.7
20260506024307 18 332 4.8 9.7 0.00 0.00 0.00 73 1006.6
20260506023807 18 346 6.4 11.3 0.00 0.00 0.00 72 1006.3
20260506023307 18 355 8.0 11.3 0.00 0.00 0.00 72 1006.2
20260506022808 19 339 6.4 9.7 0.00 0.00 0.00 72 1006.4
20260506022307 19 336 3.2 9.7 0.00 0.00 0.00 71 1006.2
20260506021807 19 323 8.0 12.9 0.00 0.00 0.00 71 1006.1
20260506021307 19 346 11.3 14.5 0.00 0.00 0.00 70 1006.2
20260506020807 19 337 14.5 20.9 0.00 0.00 0.00 70 1006.1
20260506020307 20 315 16.1 24.1 0.00 0.00 0.00 70 1006.2
20260506015807 20 356 9.7 16.1 0.00 0.00 0.00 70 1006.0
20260506015307 20 312 11.3 14.5 0.00 0.00 0.00 70 1006.1
20260506014807 20 318 9.7 16.1 0.00 0.00 0.00 71 1005.8
20260506013808 20 328 6.4 8.0 0.00 0.00 0.00 71 1005.5
20260506013307 21 314 9.7 16.1 0.00 0.00 0.00 70 1005.3
20260506012808 21 314 8.0 14.5 0.00 0.00 0.00 70 1005.2
20260506012308 21 337 8.0 14.5 0.00 0.00 0.00 69 1005.0
20260506011807 21 331 11.3 14.5 0.00 0.00 0.00 69 1004.9
20260506011308 21 346 9.7 14.5 0.00 0.00 0.00 69 1004.6
20260506010807 21 319 3.2 11.3 0.00 0.00 0.00 68 1004.4
20260506010307 21 337 8.0 11.3 0.00 0.00 0.00 67 1004.4
20260506005807 22 344 9.7 14.5 0.00 0.00 0.00 67 1004.1
20260506005307 22 15 8.0 12.9 0.00 0.00 0.00 67 1004.3
20260506004807 22 341 6.4 11.3 0.00 0.00 0.00 67 1004.5
20260506004307 22 338 3.2 9.7 0.00 0.00 0.00 67 1004.3
20260506003807 22 348 6.4 14.5 0.00 0.00 0.00 66 1004.2
20260506003307 22 18 11.3 16.1 0.00 0.00 0.00 66 1004.0
20260506002807 22 312 8.0 14.5 0.00 0.00 0.00 66 1003.8
20260506002308 23 317 6.4 16.1 0.00 0.00 0.00 66 1003.8
20260506001808 23 321 8.0 14.5 0.00 0.00 0.00 65 1003.5
20260506001307 23 308 12.9 19.3 0.00 0.00 0.00 64 1003.8
20260506000807 23 28 8.0 16.1 0.00 0.00 0.00 64 1003.7
20260506000309 23 323 6.4 12.9 0.00 0.00 0.00 64 1003.5
20260505235807 23 356 14.5 24.1 0.00 0.00 0.00 64 1003.5
20260505234307 24 338 17.7 25.7 0.00 0.00 0.00 63 1003.5
20260505233307 25 315 17.7 24.1 0.00 0.00 0.00 62 1003.4
20260505232807 25 333 11.3 24.1 0.00 0.00 0.00 61 1003.4
20260505232307 26 308 19.3 25.7 0.00 0.00 0.00 59 1003.3
20260505231307 26 318 17.7 20.9 0.00 0.00 0.00 58 1003.2
20260505230808 26 2 11.3 24.1 0.00 0.00 0.00 60 1003.2
20260505230307 26 331 11.3 19.3 0.00 0.00 0.00 59 1003.1
20260505225807 27 2 9.7 25.7 0.00 0.00 0.00 58 1002.9
20260505225307 27 349 22.5 27.4 0.00 0.00 0.00 57 1003.1
20260505224807 28 11 9.7 16.1 0.00 0.00 0.00 58 1003.1
20260505224307 28 312 12.9 19.3 0.00 0.00 0.00 57 1002.8
20260505223807 28 346 11.3 24.1 0.00 0.00 0.00 57 1002.7
20260505223307 29 311 14.5 19.3 0.00 0.00 0.00 56 1002.6
20260505222307 29 341 9.7 16.1 0.00 0.00 0.00 54 1002.5
20260505221308 30 353 9.7 14.5 0.00 0.00 0.00 50 1002.4
20260505220807 30 318 8.0 20.9 0.00 0.00 0.00 50 1002.4
20260505220307 30 330 11.3 16.1 0.00 0.00 0.00 48 1002.3
20260505215808 31 316 17.7 24.1 0.00 0.00 0.00 47 1002.3
20260505214807 31 18 9.7 16.1 0.00 0.00 0.00 48 1002.1
20260505214307 31 326 12.9 19.3 0.00 0.00 0.00 47 1002.1
20260505213807 32 355 11.3 20.9 0.00 0.00 0.00 47 1002.2
20260505211807 32 202 11.3 11.3 0.00 0.00 0.00 48 1002.2
20260505211307 32 266 6.4 9.7 0.00 0.00 0.00 49 1002.4
20260505205307 32 207 11.3 12.9 0.00 0.00 0.00 48 1002.6
20260505204807 32 196 9.7 12.9 0.00 0.00 0.00 50 1002.7
20260505202807 32 198 11.3 14.5 0.00 0.00 0.00 53 1002.8
20260505202307 31 206 8.0 12.9 0.00 0.00 0.00 51 1002.7
20260505201307 31 221 9.7 14.5 0.00 0.00 0.00 51 1002.9
20260505200806 31 267 9.7 11.3 0.00 0.00 0.00 52 1002.9
20260505200307 31 246 11.3 14.5 0.00 0.00 0.00 51 1003.1
20260505195807 31 275 11.3 14.5 0.00 0.00 0.00 53 1003.1
20260505195306 31 243 14.5 19.3 0.00 0.00 0.00 51 1003.2
20260505194807 31 251 11.3 19.3 0.00 0.00 0.00 52 1003.2
20260505193807 31 211 14.5 20.9 0.00 0.00 0.00 51 1003.3
20260505193307 31 216 8.0 16.1 0.00 0.00 0.00 54 1003.2
20260505192807 31 176 16.1 20.9 0.00 0.00 0.00 55 1003.2
20260505192310 31 169 8.0 16.1 0.00 0.00 0.00 55 1003.1
20260505191806 31 200 19.3 29.0 0.00 0.00 0.00 58 1003.2
20260505191307 31 220 9.7 12.9 0.00 0.00 0.00 55 1003.3
20260505190807 30 191 11.3 14.5 0.00 0.00 0.00 57 1003.1
20260505190307 30 199 12.9 19.3 0.00 0.00 0.00 57 1003.2
20260505185807 30 195 14.5 20.9 0.00 0.00 0.00 56 1003.2
20260505185307 30 190 19.3 20.9 0.00 0.00 0.00 55 1003.1
20260505184807 30 221 11.3 20.9 0.00 0.00 0.00 59 1003.2
20260505184307 30 239 16.1 20.9 0.00 0.00 0.00 57 1003.1
20260505183807 30 213 11.3 19.3 0.00 0.00 0.00 59 1003.2
20260505183307 29 182 11.3 20.9 0.00 0.00 0.00 60 1003.2
20260505182307 29 206 9.7 16.1 0.00 0.00 0.00 63 1003.5
20260505181807 29 236 16.1 20.9 0.00 0.00 0.00 61 1003.4
20260505181306 29 229 16.1 24.1 0.00 0.00 0.00 62 1003.5
20260505180807 28 166 19.3 25.7 0.00 0.00 0.00 64 1003.4
20260505175306 28 193 11.3 16.1 0.00 0.00 0.00 64 1003.5
20260505174307 28 196 12.9 20.9 0.00 0.00 0.00 65 1003.6
20260505173807 28 198 14.5 20.9 0.00 0.00 0.00 65 1003.6
20260505173307 28 186 14.5 24.1 0.00 0.00 0.00 65 1003.6
20260505172807 28 198 14.5 16.1 0.00 0.00 0.00 67 1003.7
20260505172307 28 177 12.9 19.3 0.00 0.00 0.00 67 1003.7
20260505171807 27 206 16.1 25.7 0.00 0.00 0.00 69 1003.7
20260505171306 27 166 19.3 29.0 0.00 0.00 0.00 68 1003.7
20260505170807 27 200 12.9 27.4 0.00 0.00 0.00 69 1003.8
20260505170307 27 177 17.7 19.3 0.00 0.00 0.00 69 1003.7
20260505165806 27 185 19.3 27.4 0.00 0.00 0.00 68 1003.7
20260505165307 27 216 8.0 19.3 0.00 0.00 0.00 68 1003.7
20260505164806 27 177 9.7 20.9 0.00 0.00 0.00 69 1003.6
20260505164307 27 175 17.7 27.4 0.00 0.00 0.00 70 1003.6
20260505163806 27 184 19.3 29.0 0.00 0.00 0.00 68 1003.6
20260505163307 27 191 20.9 38.6 0.00 0.00 0.00 68 1003.5
20260505162807 27 179 19.3 24.1 0.00 0.00 0.00 69 1003.5
20260505162307 27 172 14.5 24.1 0.00 0.00 0.00 70 1003.5
20260505161807 26 193 20.9 25.7 0.00 0.00 0.00 70 1003.4
20260505161307 26 186 19.3 27.4 0.00 0.00 0.00 71 1003.3
20260505160807 26 180 20.9 27.4 0.00 0.00 0.00 71 1003.4
20260505160306 26 191 17.7 25.7 0.00 0.00 0.00 74 1003.4
20260505153306 25 190 17.7 19.3 0.00 0.00 0.00 75 1003.3
20260505152807 25 189 24.1 32.2 0.00 0.00 0.00 75 1003.3
20260505152306 25 187 20.9 29.0 0.00 0.00 0.00 76 1003.2
20260505151807 24 164 17.7 25.7 0.00 0.00 0.00 78 1003.3
20260505151307 24 172 16.1 38.6 0.00 0.00 0.00 77 1003.4
20260505150806 24 197 16.1 19.3 0.00 0.00 0.00 78 1003.4
20260505150307 23 188 11.3 19.3 0.00 0.00 0.00 79 1003.4
20260505140307 22 178 20.9 29.0 0.00 0.00 0.00 82 1003.4
20260505130307 21 184 19.3 24.1 0.00 0.00 0.00 84 1002.9
20260505124806 21 135 24.1 32.2 0.00 0.00 0.00 84 1003.1
20260505123307 21 204 19.3 27.4 0.00 0.00 0.00 85 1002.8
20260505122806 21 179 25.7 33.8 0.00 0.00 0.00 85 1002.7
20260505122307 21 183 20.9 27.4 0.00 0.00 0.00 85 1002.7
20260505121807 21 171 19.3 27.4 0.00 0.00 0.00 85 1002.6
20260505121306 21 172 20.9 35.4 0.00 0.00 0.00 84 1002.6
20260505120807 21 161 17.7 37.0 0.00 0.00 0.00 85 1002.6
20260505120306 21 151 17.7 32.2 0.00 0.00 0.00 84 1002.7
20260505115807 21 159 25.7 33.8 0.00 0.00 0.00 85 1002.6
20260505115306 20 188 19.3 29.0 0.00 0.00 0.00 85 1002.6
20260505114807 20 177 17.7 24.1 0.00 0.00 0.00 85 1002.4
20260505114307 20 187 22.5 32.2 0.00 0.00 0.00 85 1002.2
20260505113806 20 182 19.3 29.0 0.00 0.00 0.00 85 1002.2
20260505113307 20 170 17.7 27.4 0.00 0.00 0.00 85 1002.4
20260505112306 20 193 17.7 29.0 0.00 0.00 0.00 85 1002.4
20260505111806 20 168 19.3 27.4 0.00 0.00 0.00 85 1002.4
20260505110807 20 180 12.9 20.9 0.00 0.00 0.00 85 1002.3
20260505110306 20 182 16.1 24.1 0.00 0.00 0.00 85 1002.2
20260505101806 20 161 20.9 20.9 0.00 0.00 0.00 84 1002.3
20260505101307 20 203 17.7 24.1 0.00 0.00 0.00 84 1002.3
20260505100806 20 166 12.9 19.3 0.00 0.00 0.00 84 1002.3
20260505095807 20 138 8.0 19.3 0.00 0.00 0.00 84 1002.4
20260505095306 20 177 9.7 16.1 0.00 0.00 0.00 84 1002.4
20260505094806 21 183 11.3 19.3 0.00 0.00 0.00 84 1002.4
20260505094306 21 169 12.9 20.9 0.00 0.00 0.00 84 1002.4
20260505093806 21 164 20.9 25.7 0.00 0.00 0.00 84 1002.3
20260505093306 21 163 16.1 19.3 0.00 0.00 0.00 84 1002.4
20260505092808 21 163 16.1 24.1 0.00 0.00 0.00 83 1002.5
20260505092306 21 161 14.5 16.1 0.00 0.00 0.00 83 1002.6
20260505091806 21 162 11.3 24.1 0.00 0.00 0.00 83 1002.5
20260505091307 21 168 14.5 19.3 0.00 0.00 0.00 82 1002.6
20260505090806 21 161 14.5 16.1 0.00 0.00 0.00 82 1002.6
20260505090306 21 175 19.3 24.1 0.00 0.00 0.00 82 1002.6
20260505085807 21 162 11.3 16.1 0.00 0.00 0.00 82 1002.7
20260505084307 21 165 14.5 19.3 0.00 0.00 0.00 81 1002.8
20260505083807 21 161 14.5 24.1 0.00 0.00 0.00 81 1002.8
20260505083306 21 129 16.1 20.9 0.00 0.00 0.00 81 1002.8
20260505082807 21 160 11.3 12.9 0.00 0.00 0.00 80 1002.8
20260505081807 21 162 19.3 25.7 0.00 0.00 0.00 80 1002.9
20260505081306 21 153 11.3 16.1 0.00 0.00 0.00 80 1002.9
20260505080807 21 165 14.5 19.3 0.00 0.00 0.00 79 1002.8
20260505080307 21 184 14.5 24.1 0.00 0.00 0.00 79 1002.9
20260505075806 21 188 12.9 20.9 0.00 0.00 0.00 78 1002.8
20260505075307 22 163 14.5 19.3 0.00 0.00 0.00 78 1002.8
20260505074807 22 146 11.3 19.3 0.00 0.00 0.00 77 1002.8
20260505074306 22 170 14.5 20.9 0.00 0.00 0.00 77 1003.0
20260505073806 22 159 16.1 19.3 0.00 0.00 0.00 77 1003.1
20260505073306 22 151 12.9 19.3 0.00 0.00 0.00 76 1003.1
20260505072806 22 139 14.5 20.9 0.00 0.00 0.00 76 1003.3
20260505072306 22 146 11.3 20.9 0.00 0.00 0.00 76 1003.4
20260505071306 22 153 9.7 12.9 0.00 0.00 0.00 75 1003.5
20260505070306 22 166 8.0 9.7 0.00 0.00 0.00 75 1003.7
20260505065306 22 163 16.1 20.9 0.00 0.00 0.00 74 1003.8
20260505064808 22 150 17.7 25.7 0.00 0.00 0.00 74 1004.0
20260505063807 22 171 17.7 27.4 0.00 0.00 0.00 74 1004.0
20260505063306 22 164 12.9 16.1 0.00 0.00 0.00 74 1004.0
20260505062806 22 171 17.7 24.1 0.00 0.00 0.00 74 1004.1
20260505062306 22 174 19.3 20.9 0.00 0.00 0.00 74 1004.2
20260505061306 22 170 17.7 24.1 0.00 0.00 0.00 74 1004.1
20260505060805 22 147 19.3 24.1 0.00 0.00 0.00 74 1004.0